Skip Page Navigation
NASA JPL Caltech
NASA Logo - Jet Propulsion Laboratory + View the NASA Portal
+ Center for Near-Earth Object Studies
JPL Home Earth Solar System Stars & Galaxies Technology
JPL Solar System Dynamics
BODIES ORBITS EPHEMERIDES TOOLS PHYSICAL DATA DISCOVERY FAQ SITE MAP
JPL Small-Body Database Browser
Search: [ help ]  
227648 (2006 BO128)
Classification: Main-belt Asteroid          SPK-ID: 2227648
Ephemeris | Orbit Diagram | Orbital Elements | Mission Design | Physical Parameters | Discovery Circumstances | Close-Approach Data ]

[ hide orbit diagram ]

For accurate long-term ephemerides, please instead use our Horizons system.This orbit viewer was implemented using two-body methods, and hence should not be used for determining accurate long-term trajectories (over several years or decades) or planetary encounter circumstances.


Orbital Elements at Epoch 2459200.5 (2020-Dec-17.0) TDB
Reference: JPL 17 (heliocentric ecliptic J2000)
 Element Value Uncertainty (1-sigma)   Units 
e .1048280483823732 4.499e-08  
a 3.12237780284927 3.1101e-08 au
q 2.795065031464139 1.3754e-07 au
i 4.567622893042079 4.4898e-06 deg
node 144.8211338541398 6.7375e-05 deg
peri 110.9994229055838 7.1157e-05 deg
M 158.233162569077 2.3811e-05 deg
tp 2458314.728687425071
(2018-Jul-15.22868743)
0.00013036 TDB
period 2015.239203651559
5.52
3.011e-05
8.244e-08
d
yr
n .1786388431446201 2.669e-09 deg/d
Q 3.449690574234402 3.4361e-08 au
  Orbit Determination Parameters
   # obs. used (total)      300  
   data-arc span      7269 days (19.90 yr)  
   first obs. used      2001-03-15  
   last obs. used      2021-02-07  
   planetary ephem.      DE441  
   SB-pert. ephem.      SB441-N16  
   condition code      0  
   norm. resid. RMS      .5149  
   source      ORB  
   producer      Otto Matic  
   solution date      2021-Apr-14 00:40:36  

Additional Information
 Earth MOID = 1.78281 au 
 Jupiter MOID = 1.61015 au 
 T_jup = 3.202 
[ show covariance matrix ]

Ephemeris | Orbit Diagram | Orbital Elements | Mission Design | Physical Parameters | Discovery Circumstances | Close-Approach Data ]

Physical Parameter Table
Parameter Symbol Value Units Sigma Reference Notes
absolute magnitude H 15.91   n/a MPCxxxxx  

227648 (2006 BO128)          Discovered 2006-Jan-26 by Mt. Lemmon Survey at Mount Lemmon
Reference: 20091202/Numbers.arcLast Updated: 2009-12-04

[ show close-approach data ]
Ephemeris | Orbit Diagram | Orbital Elements | Mission Design | Physical Parameters | Discovery Circumstances | Close-Approach Data ]
ABOUT SSD CREDITS/AWARDS PRIVACY/COPYRIGHT GLOSSARY LINKS
FirstGov 2021-May-08 17:41 UT
(server date/time)  
NASA Home Page
Site Manager:   Ryan S. Park
Webmaster  Alan B. Chamberlin